Location: Balsareny
(41.8670°N, 1.8830°E)
Time: 03:06:07
(UTC+02:00)

Envisat - Pass Details

Date: 18 August 2024
Orbit: 762 x 764 km, 98.3° (Epoch: 08 September)

Event Time Altitude Azimuth Distance (km) Brightness Sun altitude
Rises 05:26:39 0° 9° (N) 3,235 6.9 -16.9°
Reaches altitude 10° 05:28:59 10° 6° (N) 2,304 6.0 -16.6°
Maximum altitude 05:33:59 60° 287° (WNW) 872 3.1 -15.8°
Enters shadow 05:37:11 22° 214° (SW) 1,626 4.1 -15.3°
